Погода в Головном

Россия / Курганская область     55°18′20″N   66°48′39″E
темп.,
°C
ветер,
м/с
пор.,
м/с
влажн.,
%
обл.,
%
осадки,
мм/ч
давл.,
гПа
погр.,
м
17 мая, пн
пн1723:00+23зюз443584 0.0 101736
02:00+21зсз4103894 0.0 1017156
05:00+19зюз494965 0.0 1018136
08:00+25з57385 0.0 1018359
11:00+30зсз69265 0.0 10172233
14:00+32з7101947 0.0 10163834
17:00+31з711205 0.0 10153536
20:00+21зсз225518 0.3 101537
18 мая, вт
вт1823:00+20зюз48490 0.4 1014118
02:00+18зсз226053 0.2 101426
05:00+17зсз456790 0.3 101480
08:00+21сз5856100 0.2 1014453
11:00+26зсз4644100 0.2 10131334
14:00+26зсз6840100 0.0 10111958
17:00+23ссв9114852 0.1 10121400
20:00+20ссв69576 0.1 1013897
19 мая, ср
ср1923:00+13ссв7117745 0.3 1018764
02:00+12ссв7107298 0.0 1019866
05:00+10ссв611730 0.0 1021700
08:00+13св79540 0.0 10221058
11:00+17св783719 0.0 10231615
14:00+19ссв67303 0.0 10231823
17:00+19ссв56295 0.0 10231876
20:00+16ссв234329 0.0 102328
20 мая, чт
чт2023:00+13с22525 0.0 102411
02:00+11юз11545 0.0 102410
05:00+11з33596 0.0 102435
08:00+17з464225 0.0 1024465
11:00+21зсз673461 0.0 10231566
14:00+24з67295 0.0 10211827
17:00+24з67285 0.0 10201908
20:00+20з36442 0.0 101984
21 мая, пт
пт2123:00+17з49490 0.0 1019129
02:00+15з410500 0.0 1018150
05:00+14з48540 0.0 1018130
08:00+20зсз56420 0.0 1018337
11:00+26зсз55280 0.0 10171166
14:00+28сз45230 0.0 10172567
17:00+28сз55231 0.0 10162756
20:00+23зсз46370 0.0 101679